Location: Libas
(9.8833°N, 125.9833°E)
Time: 09:51:43
(UTC+00:00)

Envisat - Pass Details

Date: 30 January 2021
Orbit: 764 x 766 km, 98.1° (Epoch: 27 February)

Event Time Altitude Azimuth Distance (km) Brightness Sun altitude
Rises 20:01:16 0° 41° (NE) 3,218 6.6 -28.6°
Reaches altitude 10° 20:04:28 10° 63° (ENE) 2,293 6.0 -27.8°
Maximum altitude 20:07:28 16° 100° (E) 1,917 5.9 -27.1°
Drops below altitude 10° 20:10:28 10° 137° (SE) 2,293 6.2 -26.4°
Sets 20:13:39 0° 158° (SSE) 3,219 6.7 -25.7°
